sat.trackr.live / text

‹ back to catalog

STARLINK-35597

NORAD 66493 · 2025-263J

PAYLOAD ACTIVE UNKNOWN

§ Identity

Operator
Country
US
Launch date
2025-11-15
Launch site
AFETR
Launch vehicle
Mass (kg)
RCS (m²)

Purposes: comms

External: N2YO · Heavens-Above · Gunter

§ Orbital elements

Epoch: 2026-05-24T18:51:48.987360Z

Period
94.27 min
Inclination
43.0002°
Eccentricity
0.0003301
Mean motion
15.27578829 rev/d
Perigee alt
480.8 km
Apogee alt
485.3 km
Semi-major
6,861.2 km
B*
2.8880e-4
RAAN
281.2262°
Arg perigee
246.7950°
Mean anomaly
113.2554°
Rev number
3,053

§ Raw data

STARLINK-355971 66493U 25263J   26144.78598365  .00007693  00000+0  28880-3 0  99972 66493  43.0002 281.2262 0003301 246.7950 113.2554 15.27578829 30538

JSON: /api/v1/satellites/66493 · /tle

For live sub-satellite position, see the globe view (requires WebGL).

§ Visibility from observer

Set your observer location to see the next 7 days of passes ≥ 10°. The values pass through the URL so the page stays shareable.

No JS? Fill the form by hand. The geolocation button needs JavaScript.